Location: Innsbruck
(47.2657°N, 11.3914°E)
Time: 20:31:30
(UTC+01:00)

LilacSat-2 - Visible Passes

Search period start: 07 December 2021 00:00
Search period end: 17 December 2021 00:00
Orbit: 511 x 532 km, 97.5° (Epoch: 07 December)

Date Brightness Start Highest point End Pass type
(mag) Time Alt. Az. Time Alt. Az. Time Alt. Az.
07 Dec ? 05:29:12 10° NE 05:32:33 27° E 05:35:52 10° SSE visible
07 Dec ? 07:03:23 10° N 07:06:39 26° WNW 07:09:54 10° SW visible
07 Dec ? 17:47:06 10° SSW 17:50:31 32° W 17:54:00 10° NNW visible
08 Dec ? 05:16:33 10° NE 05:19:28 20° E 05:22:21 10° SE visible
08 Dec ? 06:50:11 10° N 06:53:44 35° WNW 06:57:16 10° SW visible
08 Dec ? 17:33:50 10° S 17:37:29 46° W 17:41:11 10° NNW visible
09 Dec ? 05:04:06 10° NE 05:06:21 15° E 05:08:36 10° SE visible
09 Dec ? 06:37:04 10° N 06:40:48 49° WNW 06:44:32 10° SSW visible
09 Dec ? 17:20:42 10° S 17:24:27 66° WSW 17:28:16 10° NNW visible
10 Dec ? 04:52:19 10° ENE 04:53:13 11° E 04:54:07 10° ESE visible
10 Dec ? 06:23:59 10° N 06:27:51 70° WNW 06:31:41 10° SSW visible
10 Dec ? 17:07:40 10° SSE 17:11:27 87° ENE 17:15:18 10° NNW visible
11 Dec ? 06:10:59 10° NNE 06:14:52 83° ESE 06:18:43 10° SSW visible
11 Dec ? 16:54:44 10° SSE 16:58:28 61° ENE 17:02:16 10° N visible
11 Dec ? 18:31:38 10° WSW 18:33:04 12° W 18:34:30 10° WNW visible
12 Dec ? 05:58:01 10° NNE 06:01:52 58° E 06:05:39 10° S visible
12 Dec ? 18:17:29 10° SW 18:19:55 16° W 18:22:23 10° NW visible
13 Dec ? 05:45:08 10° NNE 05:48:49 41° E 05:52:28 10° S visible
13 Dec ? 18:03:48 10° SW 18:06:49 22° W 18:09:52 10° NW visible
14 Dec ? 05:32:19 10° NNE 05:35:45 29° E 05:39:10 10° SSE visible
14 Dec ? 07:06:38 10° NNW 07:09:49 25° WNW 07:12:59 10° WSW visible
14 Dec ? 17:50:20 10° SSW 17:53:43 30° W 17:57:09 10° NNW visible
15 Dec ? 05:19:37 10° NE 05:22:40 22° E 05:25:40 10° SE visible
15 Dec ? 06:53:24 10° N 06:56:54 33° WNW 07:00:22 10° SW visible
15 Dec ? 17:37:01 10° S 17:40:39 42° W 17:44:20 10° NNW visible
16 Dec ? 05:07:06 10° NE 05:09:33 16° E 05:11:58 10° SE visible
16 Dec ? 06:40:15 10° N 06:43:58 45° WNW 06:47:39 10° SW visible
16 Dec ? 17:23:50 10° S 17:27:36 61° W 17:31:25 10° NNW visible
